Location: Praha
(50.0830°N, 14.4670°E)
Time: 05:07:51
(UTC+02:00)

ISS - Pass Details

Date: 21 May 2021
Orbit: 417 x 422 km, 51.6° (Epoch: 13 June)

Event Time Altitude Azimuth Distance (km) Brightness Sun altitude
Rises 23:44:39 0° 285° (WNW) 2,368 0.5 -17.7°
Reaches altitude 10° 23:46:45 10° 285° (WNW) 1,504 -0.5 -17.8°
Maximum altitude 23:50:08 88° 13° (NNE) 426 -3.8 -17.9°
Enters shadow 23:51:11 41° 104° (ESE) 621 -3.2 -18.0°
